DW4725 Weather Reports


Display with metric or nautical units.
time (UTC)temp
F
wind
direction
speed
MPH
gust
MPH
rain 1hr
in
rain 24hr
in
rain mn
in
humidity
%
barometer
mb
20260905111004 72 291 1.0 6.0 0.00 0.00 0.00 63 1025.3
20260905110428 72 302 1.0 6.0 0.00 0.00 0.00 64 1025.4
20260905110221 72 286 1.0 6.0 0.00 0.00 0.00 65 1025.3
20260905110016 72 288 1.0 6.0 0.00 0.00 0.00 64 1025.3
20260905105815 72 248 1.0 6.0 0.00 0.00 0.00 66 1025.3
20260905105610 72 266 1.0 6.0 0.00 0.00 0.00 65 1025.3
20260905105404 72 279 1.0 3.0 0.00 0.00 0.00 65 1025.2
20260905105202 73 299 0.0 3.0 0.00 0.00 0.00 65 1025.3
20260905104957 73 280 1.0 5.0 0.00 0.00 0.00 65 1025.3
20260905104751 73 224 0.0 5.0 0.00 0.00 0.00 65 1025.3
20260905104540 73 270 0.0 5.0 0.00 0.00 0.00 67 1025.3
20260905104339 73 300 0.0 5.0 0.00 0.00 0.00 63 1025.3
20260905104140 73 259 1.0 5.0 0.00 0.00 0.00 65 1025.3
20260905103934 73 293 0.0 6.0 0.00 0.00 0.00 65 1025.4
20260905103401 72 264 0.0 6.0 0.00 0.00 0.00 67 1025.4
20260905103156 72 283 0.0 6.0 0.00 0.00 0.00 65 1025.4
20260905102950 71 223 0.0 7.0 0.00 0.00 0.00 65 1025.4
20260905102746 71 297 1.0 7.0 0.00 0.00 0.00 63 1025.5
20260905102541 71 289 1.0 7.0 0.00 0.00 0.00 64 1025.5
20260905102337 71 260 2.0 7.0 0.00 0.00 0.00 68 1025.4
20260905102135 71 295 2.0 7.0 0.00 0.00 0.00 65 1025.4
20260905101926 71 255 3.0 7.0 0.00 0.00 0.00 65 1025.5
20260905101727 71 295 3.0 7.0 0.00 0.00 0.00 65 1025.4
20260905101526 71 305 3.0 7.0 0.00 0.00 0.00 66 1025.5
20260905101324 71 276 2.0 7.0 0.00 0.00 0.00 65 1025.4
20260905101115 71 307 1.0 6.0 0.00 0.00 0.00 65 1025.3
20260905100912 71 293 2.0 6.0 0.00 0.00 0.00 63 1025.4
20260905100711 71 298 2.0 6.0 0.00 0.00 0.00 63 1025.4
20260905100505 71 271 1.0 6.0 0.00 0.00 0.00 64 1025.3
20260905095945 71 292 2.0 6.0 0.00 0.00 0.00 67 1025.3
20260905095426 70 253 2.0 6.0 0.00 0.00 0.00 64 1025.5
20260905095223 70 310 2.0 6.0 0.00 0.00 0.00 65 1025.4
20260905095020 70 296 2.0 5.0 0.00 0.00 0.00 65 1025.4
20260905094812 71 288 1.0 4.0 0.00 0.00 0.00 64 1025.4
20260905094607 71 255 1.0 4.0 0.00 0.00 0.00 64 1025.4
20260905094401 71 296 1.0 5.0 0.00 0.00 0.00 64 1025.4
20260905094156 71 300 0.0 5.0 0.00 0.00 0.00 66 1025.4
20260905093950 71 241 0.0 5.0 0.00 0.00 0.00 66 1025.5
20260905093742 70 238 0.0 5.0 0.00 0.00 0.00 67 1025.5
20260905093534 70 221 0.0 5.0 0.00 0.00 0.00 64 1025.4
20260905093003 70 294 1.0 5.0 0.00 0.00 0.00 62 1025.3
20260905092759 70 299 0.0 5.0 0.00 0.00 0.00 64 1025.3
20260905092555 70 254 0.0 5.0 0.00 0.00 0.00 62 1025.3
20260905092356 70 308 0.0 4.0 0.00 0.00 0.00 61 1025.3
20260905092149 71 296 0.0 3.0 0.00 0.00 0.00 63 1025.3
20260905091947 71 274 0.0 3.0 0.00 0.00 0.00 62 1025.2
20260905091739 70 314 0.0 3.0 0.00 0.00 0.00 65 1025.2
20260905091530 70 255 0.0 3.0 0.00 0.00 0.00 61 1025.2
20260905091323 70 229 0.0 4.0 0.00 0.00 0.00 63 1025.2
20260905091115 70 262 0.0 4.0 0.00 0.00 0.00 64 1025.3
20260905090908 70 242 0.0 4.0 0.00 0.00 0.00 63 1025.2
20260905090708 70 270 0.0 4.0 0.00 0.00 0.00 63 1025.2
20260905090508 70 239 0.0 4.0 0.00 0.00 0.00 62 1025.2
20260905090308 70 244 0.0 5.0 0.00 0.00 0.00 64 1025.3
20260905085738 69 303 0.0 5.0 0.00 0.00 0.00 65 1025.2
20260905085534 69 276 0.0 5.0 0.00 0.00 0.00 64 1025.1
20260905085332 69 291 0.0 5.0 0.00 0.00 0.00 62 1025.2
20260905085129 69 202 0.0 5.0 0.00 0.00 0.00 62 1025.1
20260905084928 69 263 0.0 5.0 0.00 0.00 0.00 64 1025.2
20260905084724 69 248 0.0 5.0 0.00 0.00 0.00 64 1025.1
20260905084520 69 241 0.0 5.0 0.00 0.00 0.00 62 1025.0
20260905084317 69 246 0.0 3.0 0.00 0.00 0.00 63 1025.0
20260905083749 69 304 0.0 2.0 0.00 0.00 0.00 66 1025.0
20260905083544 69 256 0.0 2.0 0.00 0.00 0.00 66 1025.0
20260905083022 69 236 1.0 4.0 0.00 0.00 0.00 63 1024.9
20260905082820 69 252 0.0 4.0 0.00 0.00 0.00 64 1025.0
20260905082619 69 257 0.0 4.0 0.00 0.00 0.00 63 1025.0
20260905082414 70 279 0.0 4.0 0.00 0.00 0.00 64 1024.9
20260905082215 70 248 0.0 4.0 0.00 0.00 0.00 65 1024.9
20260905082014 70 209 0.0 4.0 0.00 0.00 0.00 65 1024.9
20260905081814 70 236 0.0 4.0 0.00 0.00 0.00 64 1024.8
20260905081244 70 259 0.0 4.0 0.00 0.00 0.00 66 1024.6
20260905081038 69 260 1.0 4.0 0.00 0.00 0.00 64 1024.7
20260905080831 70 248 0.0 7.0 0.00 0.00 0.00 65 1024.7
20260905080628 69 225 1.0 7.0 0.00 0.00 0.00 64 1024.7
20260905080422 69 280 1.0 7.0 0.00 0.00 0.00 66 1024.6
20260905080215 69 281 2.0 7.0 0.00 0.00 0.00 65 1024.6
20260905080009 69 239 2.0 7.0 0.00 0.00 0.00 65 1024.5
20260905075802 69 248 2.0 7.0 0.00 0.00 0.00 64 1024.5
20260905075553 69 229 2.0 7.0 0.00 0.00 0.00 63 1024.4
20260905075342 69 246 1.0 7.0 0.00 0.00 0.00 66 1024.5
20260905075142 69 308 1.0 7.0 0.00 0.00 0.00 67 1024.4
20260905074934 69 265 2.0 7.0 0.00 0.00 0.00 65 1024.4
20260905074724 69 228 1.0 5.0 0.00 0.00 0.00 65 1024.3
20260905074516 69 246 2.0 5.0 0.00 0.00 0.00 64 1024.3
20260905074308 69 232 2.0 5.0 0.00 0.00 0.00 63 1024.3
20260905074104 69 255 1.0 5.0 0.00 0.00 0.00 67 1024.5
20260905073855 69 234 1.0 4.0 0.00 0.00 0.00 67 1024.4
20260905073650 68 223 2.0 4.0 0.00 0.00 0.00 65 1024.4
20260905073119 68 250 1.0 5.0 0.00 0.00 0.00 66 1024.3
20260905072915 68 234 1.0 5.0 0.00 0.00 0.00 66 1024.3
20260905072708 68 234 1.0 5.0 0.00 0.00 0.00 66 1024.3
20260905072458 68 243 2.0 5.0 0.00 0.00 0.00 67 1024.3
20260905072252 68 205 2.0 5.0 0.00 0.00 0.00 68 1024.2
20260905072048 68 258 2.0 5.0 0.00 0.00 0.00 67 1024.1
20260905071846 68 241 2.0 5.0 0.00 0.00 0.00 68 1024.2
20260905071646 68 236 1.0 5.0 0.00 0.00 0.00 69 1024.1
20260905071117 68 227 1.0 4.0 0.00 0.00 0.00 66 1024.0
20260905070909 68 236 0.0 4.0 0.00 0.00 0.00 65 1024.1
20260905070702 68 245 0.0 4.0 0.00 0.00 0.00 64 1023.9
20260905070502 68 233 0.0 3.0 0.00 0.00 0.00 64 1024.0
20260905065930 68 218 0.0 3.0 0.00 0.00 0.00 64 1024.1
20260905065720 68 236 0.0 4.0 0.00 0.00 0.00 65 1023.9
20260905065511 68 231 0.0 4.0 0.00 0.00 0.00 66 1023.9
20260905065310 68 243 0.0 4.0 0.00 0.00 0.00 65 1023.7
20260905064741 68 257 0.0 5.0 0.00 0.00 0.00 62 1023.5
20260905064540 68 241 0.0 5.0 0.00 0.00 0.00 62 1023.5
20260905064335 68 227 0.0 5.0 0.00 0.00 0.00 62 1023.4
20260905064129 68 236 1.0 5.0 0.00 0.00 0.00 61 1023.4
20260905063929 69 61 1.0 5.0 0.00 0.00 0.00 61 1023.3
20260905063726 69 237 1.0 5.0 0.00 0.00 0.00 61 1023.2
20260905063518 69 173 1.0 5.0 0.00 0.00 0.00 62 1023.2
20260905063319 68 271 1.0 5.0 0.00 0.00 0.00 62 1023.2
20260905063108 68 118 1.0 5.0 0.00 0.00 0.00 61 1023.2
20260905062857 68 113 0.0 5.0 0.00 0.00 0.00 61 1023.3
20260905062648 68 208 0.0 3.0 0.00 0.00 0.00 61 1023.2
20260905062443 68 226 0.0 3.0 0.00 0.00 0.00 61 1023.2
20260905062237 68 233 0.0 1.0 0.00 0.00 0.00 61 1023.3
20260905062036 68 228 1.0 4.0 0.00 0.00 0.00 60 1023.2
20260905061835 68 251 1.0 4.0 0.00 0.00 0.00 60 1023.3
20260905061629 68 236 1.0 4.0 0.00 0.00 0.00 61 1023.2
20260905061423 68 243 1.0 4.0 0.00 0.00 0.00 60 1023.0
20260905061217 68 217 0.0 4.0 0.00 0.00 0.00 61 1023.1
20260905060644 68 252 0.0 2.0 0.00 0.00 0.00 61 1023.2
20260905060442 68 232 0.0 2.0 0.00 0.00 0.00 61 1023.2
20260905055919 66 231 0.0 2.0 0.00 0.00 0.00 64 1023.5
20260905055719 66 224 0.0 2.0 0.00 0.00 0.00 64 1023.5
20260905055518 66 232 0.0 2.0 0.00 0.00 0.00 65 1023.4
20260905055312 65 235 0.0 2.0 0.00 0.00 0.00 67 1023.7
20260905055111 65 228 0.0 1.0 0.00 0.00 0.00 67 1023.6
20260905054907 65 233 0.0 1.0 0.00 0.00 0.00 68 1023.6
20260905054657 64 228 0.0 1.0 0.00 0.00 0.00 68 1023.6
20260905054458 64 233 0.0 1.0 0.00 0.00 0.00 69 1023.6
20260905054255 64 244 0.0 0.0 0.00 0.00 0.00 69 1023.7
20260905054057 64 244 0.0 5.0 0.00 0.00 0.00 70 1023.7
20260905053853 64 236 0.0 5.0 0.00 0.00 0.00 70 1023.7
20260905053650 64 236 1.0 5.0 0.00 0.00 0.00 70 1023.7
20260905053442 64 236 1.0 5.0 0.00 0.00 0.00 70 1023.6
20260905053234 64 248 1.0 5.0 0.00 0.00 0.00 70 1023.7
20260905053024 64 226 1.0 5.0 0.00 0.00 0.00 70 1023.7
20260905052818 64 245 1.0 5.0 0.00 0.00 0.00 70 1023.7
20260905052617 64 234 1.0 5.0 0.00 0.00 0.00 70 1023.7
20260905052103 64 231 1.0 5.0 0.00 0.00 0.00 71 1023.5
20260905051855 64 229 0.0 4.0 0.00 0.00 0.00 71 1023.6
20260905051647 64 240 0.0 4.0 0.00 0.00 0.00 71 1023.4
20260905051442 64 230 0.0 4.0 0.00 0.00 0.00 71 1023.4
20260905051233 64 253 0.0 4.0 0.00 0.00 0.00 71 1023.4
20260905051025 64 226 0.0 4.0 0.00 0.00 0.00 71 1023.5
20260905050816 64 238 0.0 4.0 0.00 0.00 0.00 70 1023.4
20260905050300 64 237 1.0 5.0 0.00 0.00 0.00 70 1023.3
20260905045854 64 220 1.0 5.0 0.00 0.00 0.00 70 1023.3
20260905045329 64 203 2.0 5.0 0.00 0.00 0.00 70 1023.2
20260905045123 64 241 2.0 5.0 0.00 0.00 0.00 70 1023.2
20260905044922 64 231 2.0 5.0 0.00 0.00 0.00 69 1023.2
20260905044722 64 227 2.0 5.0 0.00 0.00 0.00 70 1023.1
20260905044519 64 240 2.0 4.0 0.00 0.00 0.00 70 1023.0
20260905044309 64 241 2.0 5.0 0.00 0.00 0.00 69 1023.0
20260905044109 64 235 2.0 5.0 0.00 0.00 0.00 69 1022.9
20260905043859 64 239 2.0 5.0 0.00 0.00 0.00 69 1022.9
20260905043335 64 238 2.0 5.0 0.00 0.00 0.00 69 1022.8
20260905043136 64 241 2.0 5.0 0.00 0.00 0.00 69 1022.9
20260905042930 64 233 3.0 5.0 0.00 0.00 0.00 69 1022.9
20260905042722 64 236 2.0 5.0 0.00 0.00 0.00 69 1022.8
20260905042514 64 240 2.0 5.0 0.00 0.00 0.00 68 1022.9
20260905042307 64 217 1.0 4.0 0.00 0.00 0.00 68 1022.8
20260905042103 64 245 1.0 4.0 0.00 0.00 0.00 67 1022.6
20260905041224 64 240 0.0 3.0 0.00 0.00 0.00 66 1022.8
20260905041023 65 243 0.0 3.0 0.00 0.00 0.00 65 1022.6
20260905040818 65 236 0.0 3.0 0.00 0.00 0.00 64 1022.7
20260905040613 65 250 0.0 3.0 0.00 0.00 0.00 64 1022.7
20260905035727 66 230 0.0 0.0 0.00 0.00 0.00 62 1022.7
20260905035203 66 240 0.0 1.0 0.00 0.00 0.00 61 1022.6
20260905034953 66 238 0.0 1.0 0.00 0.00 0.00 61 1022.6
20260905034754 66 239 0.0 1.0 0.00 0.00 0.00 61 1022.5
20260905034222 66 243 0.0 0.0 0.00 0.00 0.00 61 1022.4
20260905033703 66 248 0.0 3.0 0.00 0.00 0.00 60 1022.4
20260905033457 66 248 0.0 3.0 0.00 0.00 0.00 61 1022.3
20260905033252 66 237 1.0 3.0 0.00 0.00 0.00 61 1022.3
20260905033044 66 236 0.0 3.0 0.00 0.00 0.00 61 1022.2
20260905032845 66 240 0.0 3.0 0.00 0.00 0.00 61 1022.2
20260905032642 66 250 0.0 3.0 0.00 0.00 0.00 61 1022.2
20260905032434 66 236 0.0 3.0 0.00 0.00 0.00 61 1022.3
20260905032232 66 239 0.0 3.0 0.00 0.00 0.00 62 1022.2
20260905031335 66 247 0.0 0.0 0.00 0.00 0.00 61 1022.1
20260905031125 66 246 0.0 0.0 0.00 0.00 0.00 61 1022.2
20260905030924 66 259 0.0 1.0 0.00 0.00 0.00 61 1022.1
20260905030722 66 244 0.0 0.0 0.00 0.00 0.00 61 1022.0
20260905030513 66 244 0.0 0.0 0.00 0.00 0.00 61 1022.1
20260905030304 66 247 0.0 0.0 0.00 0.00 0.00 61 1022.1
20260905030100 66 245 0.0 3.0 0.00 0.00 0.00 61 1022.0
20260905025901 66 229 0.0 3.0 0.00 0.00 0.00 61 1022.2
20260905025334 66 250 0.0 2.0 0.00 0.00 0.00 61 1022.0
20260905024807 66 246 0.0 1.0 0.00 0.00 0.00 61 1021.9
20260905024603 66 235 0.0 1.0 0.00 0.00 0.00 61 1021.9
20260905024355 66 235 0.0 1.0 0.00 0.00 0.00 61 1021.9
20260905024155 67 235 0.0 1.0 0.00 0.00 0.00 61 1021.8
20260905023947 67 233 0.0 1.0 0.00 0.00 0.00 60 1021.8
20260905023740 67 233 0.0 3.0 0.00 0.00 0.00 60 1021.8
20260905023531 67 231 0.0 3.0 0.00 0.00 0.00 60 1021.9
20260905023009 67 233 0.0 3.0 0.00 0.00 0.00 60 1021.8
20260905022802 67 235 0.0 3.0 0.00 0.00 0.00 59 1021.8
20260905022554 67 236 0.0 3.0 0.00 0.00 0.00 60 1021.8
20260905022354 67 235 0.0 3.0 0.00 0.00 0.00 60 1021.9
20260905022146 67 228 0.0 3.0 0.00 0.00 0.00 60 1021.7
20260905021944 67 248 0.0 3.0 0.00 0.00 0.00 60 1021.8
20260905021739 66 214 0.0 3.0 0.00 0.00 0.00 60 1021.8
20260905021533 66 231 0.0 3.0 0.00 0.00 0.00 61 1021.7
20260905021331 66 236 0.0 3.0 0.00 0.00 0.00 61 1021.8
20260905021124 66 242 0.0 3.0 0.00 0.00 0.00 61 1021.7
20260905020913 66 240 0.0 3.0 0.00 0.00 0.00 61 1021.8
20260905020706 66 224 0.0 1.0 0.00 0.00 0.00 62 1021.8
20260905020505 66 234 0.0 0.0 0.00 0.00 0.00 62 1021.9
20260905015940 65 221 0.0 4.0 0.00 0.00 0.00 63 1021.9
20260905015421 65 226 0.0 4.0 0.00 0.00 0.00 64 1022.0
20260905015214 65 250 0.0 4.0 0.00 0.00 0.00 64 1021.9
20260905014654 65 225 1.0 4.0 0.00 0.00 0.00 64 1021.9
20260905014127 66 238 1.0 4.0 0.00 0.00 0.00 64 1021.9
20260905013552 67 245 1.0 8.0 0.00 0.00 0.00 63 1022.0
20260905013347 67 238 1.0 8.0 0.00 0.00 0.00 62 1022.0
20260905013137 67 251 1.0 8.0 0.00 0.00 0.00 62 1021.9
20260905012927 67 236 1.0 8.0 0.00 0.00 0.00 62 1021.9
20260905012728 67 224 2.0 8.0 0.00 0.00 0.00 62 1021.9
20260905012528 67 233 2.0 8.0 0.00 0.00 0.00 62 1022.0
20260905012323 67 215 3.0 8.0 0.00 0.00 0.00 61 1022.1
20260905011805 68 211 3.0 8.0 0.00 0.00 0.00 60 1022.2
20260905011239 68 235 3.0 7.0 0.00 0.00 0.00 61 1022.2
20260905011031 67 231 3.0 7.0 0.00 0.00 0.00 62 1022.2
20260905010820 67 260 3.0 7.0 0.00 0.00 0.00 62 1022.2
20260905010620 67 238 3.0 7.0 0.00 0.00 0.00 63 1022.2
20260905010046 67 236 2.0 7.0 0.00 0.00 0.00 64 1022.2
20260905005840 67 232 1.0 7.0 0.00 0.00 0.00 64 1022.3
20260905005642 67 242 1.0 7.0 0.00 0.00 0.00 65 1022.3
20260905005439 67 226 1.0 7.0 0.00 0.00 0.00 65 1022.2
20260905003930 68 231 0.0 0.0 0.00 0.00 0.00 65 1022.2
20260905003721 68 238 0.0 3.0 0.00 0.00 0.00 65 1022.1
20260905003515 68 248 1.0 3.0 0.00 0.00 0.00 65 1022.2
20260905003313 69 226 0.0 3.0 0.00 0.00 0.00 64 1022.3
20260905003109 69 245 0.0 3.0 0.00 0.00 0.00 64 1022.2
20260905002902 69 233 0.0 3.0 0.00 0.00 0.00 64 1022.2
20260905002341 69 234 0.0 4.0 0.00 0.00 0.00 64 1022.2
20260905001817 69 236 0.0 4.0 0.00 0.00 0.00 65 1022.2
20260905001250 69 237 0.0 5.0 0.00 0.00 0.00 64 1022.1
20260905001048 69 244 0.0 5.0 0.00 0.00 0.00 64 1022.1
20260905000848 69 238 1.0 5.0 0.00 0.00 0.00 63 1022.1
20260905000638 69 238 1.0 5.0 0.00 0.00 0.00 64 1022.0
20260905000428 69 243 2.0 5.0 0.00 0.00 0.00 63 1022.0
20260905000229 69 240 3.0 5.0 0.00 0.00 0.00 63 1022.1
20260905000018 69 231 3.0 5.0 0.00 0.00 0.00 63 1022.0
20260904235500 69 239 2.0 6.0 0.00 0.00 0.00 64 1022.2
20260904234612 71 228 2.0 6.0 0.00 0.00 0.00 61 1022.2
20260904234408 71 231 2.0 6.0 0.00 0.00 0.00 61 1022.2
20260904234200 71 235 2.0 6.0 0.00 0.00 0.00 61 1022.1
20260904233949 71 236 2.0 6.0 0.00 0.00 0.00 61 1022.1
20260904233430 71 247 2.0 6.0 0.00 0.00 0.00 61 1022.1
20260904233221 71 245 2.0 6.0 0.00 0.00 0.00 61 1022.1
20260904233011 71 248 3.0 6.0 0.00 0.00 0.00 62 1022.2
20260904232808 71 233 3.0 6.0 0.00 0.00 0.00 62 1022.1
20260904232601 70 255 3.0 6.0 0.00 0.00 0.00 62 1022.2
20260904231733 71 211 3.0 6.0 0.00 0.00 0.00 62 1022.0
20260904231530 71 243 3.0 7.0 0.00 0.00 0.00 62 1022.0
20260904231319 71 229 2.0 7.0 0.00 0.00 0.00 62 1021.9
20260904231117 71 238 3.0 7.0 0.00 0.00 0.00 62 1022.0
20260904230906 70 180 2.0 7.0 0.00 0.00 0.00 62 1021.9
20260904230705 71 233 3.0 7.0 0.00 0.00 0.00 62 1022.0
20260904230500 70 237 2.0 7.0 0.00 0.00 0.00 62 1021.9
20260904230251 71 247 2.0 7.0 0.00 0.00 0.00 62 1022.0
20260904230053 71 241 1.0 7.0 0.00 0.00 0.00 62 1021.9
20260904225853 71 235 1.0 7.0 0.00 0.00 0.00 61 1021.9
20260904225645 71 219 0.0 4.0 0.00 0.00 0.00 61 1021.9
20260904225444 71 245 0.0 4.0 0.00 0.00 0.00 61 1021.9
20260904224926 71 252 0.0 3.0 0.00 0.00 0.00 60 1021.9
20260904224043 72 264 1.0 3.0 0.00 0.00 0.00 60 1021.8
20260904223834 72 230 1.0 3.0 0.00 0.00 0.00 60 1021.7
20260904223633 72 213 0.0 2.0 0.00 0.00 0.00 60 1021.8
20260904223434 71 237 0.0 2.0 0.00 0.00 0.00 60 1021.7
20260904223227 71 250 0.0 2.0 0.00 0.00 0.00 60 1021.8
20260904223025 71 230 0.0 3.0 0.00 0.00 0.00 61 1021.8
20260904222822 71 233 0.0 3.0 0.00 0.00 0.00 61 1021.8
20260904222616 71 236 0.0 3.0 0.00 0.00 0.00 61 1021.8
20260904222411 71 236 0.0 3.0 0.00 0.00 0.00 61 1021.8
20260904222201 71 219 0.0 3.0 0.00 0.00 0.00 61 1021.8
20260904222000 71 234 0.0 3.0 0.00 0.00 0.00 61 1021.8
20260904221755 71 252 0.0 3.0 0.00 0.00 0.00 61 1021.8
20260904221556 71 226 0.0 3.0 0.00 0.00 0.00 61 1021.9
20260904221027 71 245 1.0 3.0 0.00 0.00 0.00 61 1021.9
20260904220818 71 221 0.0 3.0 0.00 0.00 0.00 61 1021.9
20260904220259 71 230 0.0 3.0 0.00 0.00 0.00 60 1022.0
20260904215728 72 243 0.0 3.0 0.00 0.00 0.00 60 1021.9
20260904215529 72 233 0.0 3.0 0.00 0.00 0.00 60 1022.0
20260904215329 72 212 0.0 3.0 0.00 0.00 0.00 60 1021.9
20260904214438 72 220 0.0 3.0 0.00 0.00 0.00 59 1021.9
20260904213912 72 212 1.0 3.0 0.00 0.00 0.00 59 1021.8
20260904213701 72 233 1.0 3.0 0.00 0.00 0.00 59 1021.8
20260904213500 72 234 1.0 3.0 0.00 0.00 0.00 59 1021.7
20260904213254 72 248 1.0 3.0 0.00 0.00 0.00 59 1021.7
20260904213055 72 256 1.0 3.0 0.00 0.00 0.00 59 1021.6
20260904212845 72 222 0.0 2.0 0.00 0.00 0.00 59 1021.7
20260904212636 72 245 0.0 2.0 0.00 0.00 0.00 59 1021.7
20260904212436 72 242 0.0 3.0 0.00 0.00 0.00 59 1021.7
20260904211917 71 249 0.0 3.0 0.00 0.00 0.00 60 1021.8
20260904211711 71 257 0.0 3.0 0.00 0.00 0.00 60 1021.8
20260904211501 72 259 0.0 3.0 0.00 0.00 0.00 60 1021.8
20260904211251 72 238 0.0 3.0 0.00 0.00 0.00 59 1021.9
20260904211048 72 244 0.0 3.0 0.00 0.00 0.00 59 1021.9
20260904210845 72 226 0.0 3.0 0.00 0.00 0.00 59 1021.9
20260904210638 72 244 0.0 3.0 0.00 0.00 0.00 60 1021.9
20260904210434 72 232 0.0 4.0 0.00 0.00 0.00 60 1021.9
20260904210228 72 221 0.0 4.0 0.00 0.00 0.00 60 1021.8
20260904210028 72 244 0.0 4.0 0.00 0.00 0.00 60 1021.9
20260904205826 72 247 0.0 4.0 0.00 0.00 0.00 60 1021.8
20260904205627 72 245 0.0 4.0 0.00 0.00 0.00 60 1021.9
20260904205419 72 243 0.0 10.0 0.00 0.00 0.00 60 1021.9
20260904205219 72 252 0.0 10.0 0.00 0.00 0.00 60 1021.9
20260904205014 72 250 0.0 10.0 0.00 0.00 0.00 59 1021.9
20260904204810 72 248 0.0 10.0 0.00 0.00 0.00 59 1021.9
20260904204603 72 234 1.0 10.0 0.00 0.00 0.00 59 1021.9
20260904204401 72 231 1.0 10.0 0.00 0.00 0.00 59 1021.8
20260904204153 72 245 1.0 10.0 0.00 0.00 0.00 59 1021.9
20260904203951 72 229 1.0 10.0 0.00 0.00 0.00 59 1021.8
20260904203747 72 242 1.0 10.0 0.00 0.00 0.00 59 1021.9
20260904203541 72 248 0.0 8.0 0.00 0.00 0.00 59 1021.8
20260904203339 72 247 0.0 7.0 0.00 0.00 0.00 58 1021.8
20260904203138 72 245 0.0 5.0 0.00 0.00 0.00 59 1021.9
20260904202608 72 249 0.0 5.0 0.00 0.00 0.00 58 1021.9
20260904202358 72 203 0.0 4.0 0.00 0.00 0.00 58 1021.9
20260904202148 72 242 0.0 3.0 0.00 0.00 0.00 58 1021.9
20260904201942 72 252 0.0 3.0 0.00 0.00 0.00 59 1022.0
20260904201739 72 239 0.0 3.0 0.00 0.00 0.00 58 1021.9
20260904201537 72 236 0.0 3.0 0.00 0.00 0.00 58 1021.8
20260904201333 72 275 0.0 3.0 0.00 0.00 0.00 59 1021.8
20260904201127 72 233 0.0 3.0 0.00 0.00 0.00 59 1021.9
20260904200926 72 222 0.0 3.0 0.00 0.00 0.00 59 1021.7
20260904200722 72 234 0.0 3.0 0.00 0.00 0.00 59 1021.7
20260904200519 72 231 0.0 3.0 0.00 0.00 0.00 60 1021.6
20260904200311 72 230 0.0 3.0 0.00 0.00 0.00 60 1021.5
20260904200108 72 252 0.0 5.0 0.00 0.00 0.00 60 1021.5
20260904195904 72 245 1.0 5.0 0.00 0.00 0.00 60 1021.5
20260904195658 72 236 1.0 5.0 0.00 0.00 0.00 60 1021.6
20260904195457 72 264 2.0 5.0 0.00 0.00 0.00 60 1021.5
20260904195257 72 247 2.0 5.0 0.00 0.00 0.00 60 1021.6
20260904195052 72 220 3.0 7.0 0.00 0.00 0.00 61 1021.5
20260904194847 72 226 3.0 7.0 0.00 0.00 0.00 60 1021.5
20260904194646 72 223 4.0 7.0 0.00 0.00 0.00 60 1021.4
20260904194121 72 228 4.0 7.0 0.00 0.00 0.00 60 1021.4
20260904193919 72 238 3.0 7.0 0.00 0.00 0.00 60 1021.4
20260904193710 72 236 2.0 7.0 0.00 0.00 0.00 59 1021.3
20260904193503 72 236 1.0 7.0 0.00 0.00 0.00 60 1021.4
20260904192617 73 226 1.0 5.0 0.00 0.00 0.00 59 1021.2
20260904192101 73 240 1.0 5.0 0.00 0.00 0.00 58 1021.2
20260904191529 73 236 1.0 5.0 0.00 0.00 0.00 58 1021.1
20260904191326 73 212 1.0 6.0 0.00 0.00 0.00 58 1021.1
20260904191127 73 238 1.0 6.0 0.00 0.00 0.00 57 1021.0
20260904190916 73 238 1.0 6.0 0.00 0.00 0.00 57 1021.0
20260904190350 73 281 3.0 11.0 0.00 0.00 0.00 58 1021.0
20260904185822 75 232 4.0 11.0 0.00 0.00 0.00 56 1020.8
20260904185618 75 223 5.0 11.0 0.00 0.00 0.00 56 1020.9
20260904185407 75 233 5.0 11.0 0.00 0.00 0.00 54 1021.0
20260904184832 74 253 4.0 11.0 0.00 0.00 0.00 55 1020.9
20260904184621 74 220 4.0 11.0 0.00 0.00 0.00 57 1020.8
20260904184413 74 252 4.0 9.0 0.00 0.00 0.00 58 1020.8
20260904184207 74 248 3.0 7.0 0.00 0.00 0.00 59 1020.7
20260904184005 73 236 2.0 7.0 0.00 0.00 0.00 59 1020.8
20260904183756 74 207 2.0 7.0 0.00 0.00 0.00 59 1020.7
20260904182913 74 254 2.0 6.0 0.00 0.00 0.00 61 1020.6
20260904182703 74 232 2.0 6.0 0.00 0.00 0.00 60 1020.7
20260904182459 74 227 2.0 6.0 0.00 0.00 0.00 60 1020.7
20260904182249 74 240 2.0 6.0 0.00 0.00 0.00 59 1020.6
20260904182044 75 253 2.0 6.0 0.00 0.00 0.00 59 1020.7
20260904181840 75 250 2.0 6.0 0.00 0.00 0.00 58 1020.6
20260904181639 75 238 2.0 6.0 0.00 0.00 0.00 58 1020.6
20260904181435 75 222 2.0 5.0 0.00 0.00 0.00 57 1020.6
20260904180900 75 208 1.0 7.0 0.00 0.00 0.00 57 1020.6
20260904180656 75 228 2.0 7.0 0.00 0.00 0.00 57 1020.6
20260904180446 76 206 2.0 7.0 0.00 0.00 0.00 57 1020.5
20260904180241 76 202 3.0 7.0 0.00 0.00 0.00 57 1020.5
20260904180031 76 229 3.0 7.0 0.00 0.00 0.00 56 1020.4
20260904175825 76 248 3.0 8.0 0.00 0.00 0.00 55 1020.5
20260904175620 76 234 3.0 8.0 0.00 0.00 0.00 55 1020.4
20260904175411 77 221 3.0 8.0 0.00 0.00 0.00 55 1020.3
20260904174847 77 232 3.0 12.0 0.00 0.00 0.00 53 1020.4
20260904174644 77 236 3.0 12.0 0.00 0.00 0.00 54 1020.4
20260904174435 78 220 3.0 12.0 0.00 0.00 0.00 53 1020.4
20260904174227 78 236 3.0 12.0 0.00 0.00 0.00 53 1020.4
20260904174023 78 255 3.0 12.0 0.00 0.00 0.00 52 1020.4
20260904173822 78 231 4.0 12.0 0.00 0.00 0.00 52 1020.4
20260904173623 78 224 4.0 12.0 0.00 0.00 0.00 52 1020.4
20260904173419 78 243 4.0 12.0 0.00 0.00 0.00 52 1020.4
20260904173218 78 221 4.0 12.0 0.00 0.00 0.00 52 1020.4
20260904173019 78 244 4.0 12.0 0.00 0.00 0.00 52 1020.3
20260904172817 78 249 3.0 9.0 0.00 0.00 0.00 53 1020.3
20260904172612 78 253 3.0 9.0 0.00 0.00 0.00 52 1020.3
20260904172050 79 255 4.0 11.0 0.00 0.00 0.00 51 1020.3
20260904171844 79 232 4.0 11.0 0.00 0.00 0.00 51 1020.2
20260904171638 79 244 4.0 11.0 0.00 0.00 0.00 51 1020.2
20260904171431 79 211 4.0 11.0 0.00 0.00 0.00 52 1020.2
20260904171224 79 250 4.0 11.0 0.00 0.00 0.00 51 1020.2
20260904171012 79 233 4.0 11.0 0.00 0.00 0.00 50 1020.1
20260904170808 79 231 3.0 11.0 0.00 0.00 0.00 51 1020.1
20260904170558 79 211 3.0 11.0 0.00 0.00 0.00 50 1020.1
20260904170358 79 236 2.0 11.0 0.00 0.00 0.00 50 1020.0
20260904170154 79 248 2.0 10.0 0.00 0.00 0.00 50 1020.1
20260904165635 79 250 3.0 10.0 0.00 0.00 0.00 50 1020.1
20260904165436 79 226 3.0 10.0 0.00 0.00 0.00 51 1020.1
20260904165236 79 318 4.0 10.0 0.00 0.00 0.00 50 1020.0
20260904165036 79 302 4.0 9.0 0.00 0.00 0.00 50 1020.1
20260904164507 79 252 4.0 10.0 0.00 0.00 0.00 49 1020.0
20260904164307 80 220 4.0 10.0 0.00 0.00 0.00 51 1019.9
20260904164100 80 245 3.0 10.0 0.00 0.00 0.00 51 1020.0
20260904163858 80 245 3.0 10.0 0.00 0.00 0.00 51 1020.0
20260904163651 80 249 4.0 10.0 0.00 0.00 0.00 51 1020.0
20260904163129 81 239 4.0 10.0 0.00 0.00 0.00 49 1020.0
20260904162239 81 242 3.0 8.0 0.00 0.00 0.00 49 1020.0
20260904162040 81 215 3.0 8.0 0.00 0.00 0.00 49 1020.0
20260904161835 81 233 3.0 8.0 0.00 0.00 0.00 48 1020.0
20260904161627 80 212 4.0 10.0 0.00 0.00 0.00 48 1020.1
20260904161427 80 226 4.0 10.0 0.00 0.00 0.00 49 1020.0
20260904161224 80 264 4.0 10.0 0.00 0.00 0.00 48 1020.0
20260904161021 80 247 4.0 10.0 0.00 0.00 0.00 49 1020.1
20260904160819 80 217 4.0 10.0 0.00 0.00 0.00 49 1020.0
20260904160609 80 232 3.0 12.0 0.00 0.00 0.00 50 1020.0
20260904160409 80 250 3.0 12.0 0.00 0.00 0.00 50 1019.9
20260904160202 80 242 3.0 12.0 0.00 0.00 0.00 51 1020.0
20260904155955 80 237 3.0 12.0 0.00 0.00 0.00 50 1020.0
20260904155750 80 227 4.0 12.0 0.00 0.00 0.00 51 1020.0
20260904155540 81 230 4.0 12.0 0.00 0.00 0.00 49 1020.0
20260904155338 80 238 4.0 12.0 0.00 0.00 0.00 47 1019.9
20260904155137 81 229 4.0 12.0 0.00 0.00 0.00 48 1020.0
20260904154939 81 237 4.0 12.0 0.00 0.00 0.00 47 1019.9
20260904154730 81 216 3.0 11.0 0.00 0.00 0.00 47 1019.9
20260904154157 81 254 4.0 11.0 0.00 0.00 0.00 47 1020.0
20260904153955 81 257 4.0 11.0 0.00 0.00 0.00 46 1020.0
20260904153429 81 249 5.0 12.0 0.00 0.00 0.00 49 1020.0
20260904153223 81 223 5.0 12.0 0.00 0.00 0.00 46 1020.0
20260904153021 81 239 4.0 12.0 0.00 0.00 0.00 47 1020.1
20260904152812 81 221 4.0 12.0 0.00 0.00 0.00 47 1020.1
20260904152611 81 229 4.0 12.0 0.00 0.00 0.00 47 1020.2
20260904152403 81 236 5.0 12.0 0.00 0.00 0.00 47 1020.1
20260904152158 81 279 5.0 12.0 0.00 0.00 0.00 47 1020.0
20260904151952 81 238 5.0 12.0 0.00 0.00 0.00 47 1020.1
20260904151750 81 250 4.0 11.0 0.00 0.00 0.00 47 1020.1
20260904151543 81 238 4.0 11.0 0.00 0.00 0.00 46 1020.2
20260904151014 81 269 4.0 9.0 0.00 0.00 0.00 48 1020.2
20260904150815 81 224 3.0 9.0 0.00 0.00 0.00 47 1020.2
20260904150611 81 228 3.0 9.0 0.00 0.00 0.00 48 1020.2
20260904150410 81 254 4.0 9.0 0.00 0.00 0.00 47 1020.2
20260904150200 81 233 3.0 10.0 0.00 0.00 0.00 48 1020.2
20260904145950 81 230 4.0 10.0 0.00 0.00 0.00 49 1020.2
20260904145748 81 257 4.0 10.0 0.00 0.00 0.00 50 1020.2
20260904145547 81 236 4.0 10.0 0.00 0.00 0.00 49 1020.3
20260904145341 81 238 4.0 10.0 0.00 0.00 0.00 47 1020.3
20260904145138 81 259 5.0 10.0 0.00 0.00 0.00 47 1020.3
20260904144938 81 258 5.0 10.0 0.00 0.00 0.00 49 1020.3
20260904144411 81 248 5.0 10.0 0.00 0.00 0.00 49 1020.4
20260904144207 81 243 5.0 10.0 0.00 0.00 0.00 49 1020.3
20260904144005 81 215 5.0 10.0 0.00 0.00 0.00 49 1020.4
20260904143432 81 233 4.0 10.0 0.00 0.00 0.00 48 1020.4
20260904143225 81 233 4.0 10.0 0.00 0.00 0.00 51 1020.4
20260904143024 81 252 4.0 10.0 0.00 0.00 0.00 49 1020.4
20260904142814 81 239 3.0 10.0 0.00 0.00 0.00 49 1020.4
20260904142248 81 240 4.0 8.0 0.00 0.00 0.00 49 1020.5
20260904141725 81 229 3.0 7.0 0.00 0.00 0.00 49 1020.6
20260904141158 81 267 3.0 7.0 0.00 0.00 0.00 48 1020.7
20260904140637 81 261 2.0 10.0 0.00 0.00 0.00 50 1020.6
20260904140436 81 232 3.0 10.0 0.00 0.00 0.00 50 1020.8
20260904140227 81 257 3.0 10.0 0.00 0.00 0.00 49 1020.8
20260904135709 80 233 4.0 10.0 0.00 0.00 0.00 50 1020.8
20260904135500 81 218 4.0 10.0 0.00 0.00 0.00 48 1020.9
20260904135258 80 238 3.0 10.0 0.00 0.00 0.00 48 1020.9
20260904135052 80 267 4.0 10.0 0.00 0.00 0.00 50 1020.9
20260904134846 81 222 4.0 10.0 0.00 0.00 0.00 48 1021.0
20260904134645 81 277 4.0 9.0 0.00 0.00 0.00 49 1020.9
20260904134440 80 237 5.0 9.0 0.00 0.00 0.00 51 1020.9
20260904134237 80 254 5.0 9.0 0.00 0.00 0.00 48 1020.9
20260904134028 80 236 5.0 9.0 0.00 0.00 0.00 49 1020.9
20260904133821 81 230 5.0 9.0 0.00 0.00 0.00 48 1021.0
20260904133620 81 224 5.0 9.0 0.00 0.00 0.00 50 1021.0
20260904133414 81 190 4.0 9.0 0.00 0.00 0.00 49 1020.9
20260904133205 81 257 3.0 9.0 0.00 0.00 0.00 47 1021.0
20260904132955 81 211 3.0 9.0 0.00 0.00 0.00 47 1021.1
20260904132436 81 239 2.0 8.0 0.00 0.00 0.00 49 1021.1
20260904131917 81 252 1.0 8.0 0.00 0.00 0.00 52 1021.1
20260904131710 81 252 1.0 9.0 0.00 0.00 0.00 50 1021.2
20260904131153 81 231 1.0 9.0 0.00 0.00 0.00 49 1021.2
20260904130952 81 230 2.0 9.0 0.00 0.00 0.00 54 1021.2
20260904130744 81 238 3.0 9.0 0.00 0.00 0.00 52 1021.1
20260904130533 81 224 2.0 9.0 0.00 0.00 0.00 52 1021.2
20260904130333 80 242 2.0 9.0 0.00 0.00 0.00 51 1021.2
20260904125812 81 243 2.0 8.0 0.00 0.00 0.00 51 1021.2
20260904125606 81 235 2.0 7.0 0.00 0.00 0.00 53 1021.3
20260904125407 81 253 2.0 7.0 0.00 0.00 0.00 49 1021.3
20260904125202 81 220 1.0 6.0 0.00 0.00 0.00 50 1021.2
20260904124956 81 240 1.0 6.0 0.00 0.00 0.00 51 1021.3
20260904124745 81 232 1.0 6.0 0.00 0.00 0.00 55 1021.4
20260904124535 81 238 2.0 6.0 0.00 0.00 0.00 52 1021.3
20260904124336 80 248 2.0 6.0 0.00 0.00 0.00 52 1021.3
20260904124130 80 243 2.0 6.0 0.00 0.00 0.00 51 1021.4
20260904123929 80 256 2.0 5.0 0.00 0.00 0.00 50 1021.4
20260904123728 80 195 1.0 5.0 0.00 0.00 0.00 51 1021.5
20260904123525 80 239 1.0 5.0 0.00 0.00 0.00 50 1021.4
20260904123316 81 290 1.0 5.0 0.00 0.00 0.00 52 1021.5
20260904123116 81 244 1.0 5.0 0.00 0.00 0.00 52 1021.5
20260904122908 80 229 1.0 5.0 0.00 0.00 0.00 52 1021.5
20260904122706 80 243 1.0 7.0 0.00 0.00 0.00 53 1021.6
20260904122140 80 235 1.0 7.0 0.00 0.00 0.00 52 1021.5
20260904121934 80 264 1.0 7.0 0.00 0.00 0.00 51 1021.5
20260904121727 80 243 2.0 7.0 0.00 0.00 0.00 52 1021.5
20260904121527 80 264 2.0 7.0 0.00 0.00 0.00 53 1021.5
20260904120641 80 227 2.0 7.0 0.00 0.00 0.00 54 1021.6
20260904120440 80 238 1.0 7.0 0.00 0.00 0.00 54 1021.6
20260904120233 80 245 1.0 7.0 0.00 0.00 0.00 54 1021.6
20260904120033 80 245 1.0 7.0 0.00 0.00 0.00 49 1021.6
20260904115827 80 261 1.0 7.0 0.00 0.00 0.00 54 1021.6
20260904115622 79 257 1.0 7.0 0.00 0.00 0.00 50 1021.7
20260904115420 79 200 2.0 7.0 0.00 0.00 0.00 53 1021.7
20260904115209 79 250 2.0 7.0 0.00 0.00 0.00 50 1021.7
20260904114324 79 243 1.0 5.0 0.00 0.00 0.00 52 1021.7
20260904114119 79 238 0.0 4.0 0.00 0.00 0.00 51 1021.7
20260904113917 79 283 1.0 5.0 0.00 0.00 0.00 54 1021.8
20260904113706 79 278 1.0 5.0 0.00 0.00 0.00 52 1021.7
20260904113457 78 252 1.0 5.0 0.00 0.00 0.00 55 1021.7
20260904113258 78 267 1.0 5.0 0.00 0.00 0.00 51 1021.7
20260904113055 78 246 1.0 5.0 0.00 0.00 0.00 50 1021.7
20260904112844 78 250 1.0 9.0 0.00 0.00 0.00 53 1021.7
20260904112641 78 272 1.0 9.0 0.00 0.00 0.00 52 1021.7
20260904112440 78 245 1.0 9.0 0.00 0.00 0.00 53 1021.7
20260904112238 78 243 2.0 9.0 0.00 0.00 0.00 53 1021.7
20260904112038 78 250 3.0 9.0 0.00 0.00 0.00 50 1021.8
20260904111829 78 240 3.0 9.0 0.00 0.00 0.00 52 1021.7
20260904111621 77 250 3.0 9.0 0.00 0.00 0.00 51 1021.7